    S/2003 J 11                                                  q = 0.1160
Date    TT    R. A. (2000) Decl.     Delta     r_J   dR.A. ("/m)  dDecl. ("/')
2003 03 02    08 50.69   +18 00.8    4.598    0.159   927+/1.08+  2380-/ 39.7-
2003 03 12    08 46.68   +18 17.5    4.694    0.156   464+/0.54+  2192-/ 36.5-
2003 03 22    08 43.79   +18 29.6    4.810    0.153    20-/0.02-  1983-/ 33.0-
2003 04 01    08 42.15   +18 36.9    4.943    0.150   516-/0.61-  1755-/ 29.3-
2003 04 11    08 41.80   +18 39.4    5.088    0.147  1015-/1.19-  1514-/ 25.2-
2003 04 21    08 42.72   +18 37.2    5.239    0.144  1505-/1.76-  1261-/ 21.0-
2003 05 01    08 44.84   +18 30.5    5.392    0.141  1975-/2.31-  1000-/ 16.7-
2003 05 11    08 48.09   +18 19.5    5.542    0.138  2414-/2.82-   733-/ 12.2-
2003 05 21    08 52.35   +18 04.3    5.686    0.134  2811-/3.29-   463-/  7.7-
2003 05 31    08 57.49   +17 45.3    5.822    0.131  3156-/3.68-   194-/  3.2-
2003 06 10    09 03.43   +17 22.5    5.945    0.129  3439-/4.00-    70+/  1.2+
2003 06 20    09 10.05   +16 56.2    6.053    0.126  3651-/4.24-   325+/  5.4+
2003 06 30    09 17.24   +16 26.5    6.146    0.123  3784-/4.38-   564+/  9.4+
2003 07 10    09 24.92   +15 53.7    6.221    0.121  3831-/4.43-   783+/ 13.1+

    S/2003 J 12                                                  q = 0.0791
Date    TT    R. A. (2000) Decl.     Delta     r_J   dR.A. ("/m)  dDecl. ("/')
2003 03 02    08 58.08   +17 47.1    4.419    0.173  7262+/8.47+  3203-/ 53.4-
2003 03 12    08 54.42   +17 58.1    4.521    0.174  7086+/8.28+  3359-/ 56.0-
2003 03 22    08 51.83   +18 04.5    4.646    0.174  6859+/8.02+  3487-/ 58.1-
2003 04 01    08 50.45   +18 06.3    4.789    0.174  6586+/7.70+  3592-/ 59.9-
2003 04 11    08 50.32   +18 03.4    4.946    0.174  6277+/7.34+  3674-/ 61.2-
2003 04 21    08 51.41   +17 56.0    5.111    0.173  5935+/6.93+  3735-/ 62.2-
2003 05 01    08 53.65   +17 44.2    5.281    0.172  5565+/6.49+  3776-/ 62.9-
2003 05 11    08 56.94   +17 28.4    5.451    0.171  5169+/6.02+  3797-/ 63.3-
2003 05 21    09 01.15   +17 08.8    5.617    0.169  4750+/5.52+  3797-/ 63.3-
2003 05 31    09 06.18   +16 45.6    5.775    0.167  4310+/5.00+  3776-/ 62.9-
2003 06 10    09 11.89   +16 19.1    5.924    0.165  3849+/4.46+  3732-/ 62.2-
2003 06 20    09 18.18   +15 49.7    6.059    0.162  3371+/3.89+  3665-/ 61.1-
2003 06 30    09 24.94   +15 17.6    6.180    0.159  2876+/3.31+  3574-/ 59.6-
2003 07 10    09 32.07   +14 43.0    6.283    0.156  2367+/2.72+  3458-/ 57.6-

     The orbital elements and ephemerides for S/2003 J 1 and S/2003 J 6
supplied on MPEC 2003-E11 refer to mathematically correct but (as advised by
B. J. Gray) what are undoubtedly physically incorrect solutions.  They should
therefore be replaced by the following:

Orbital elements:
S/2003 J 1
Epoch 2003 June 10.0 TT = JDT 2452800.5                 MPC
M  84.10180              (2000.0)            P               Q
n   0.45975315     Peri.  344.76184     -0.59514595     -0.78343450
a   0.1637153      Node   218.72723     -0.70416137     +0.40107407
e   0.3445952      Incl.  163.37673     -0.38724419     +0.47473147
P   2.14           H   15.8           P/d   783.03
Residuals in seconds of arc
K0325  568  0.5+  0.2+    K032O  568  0.1+  0.0     K0333  568  0.1+  0.1-
K0325  568  0.4+  0.3+    K032O  568  0.1+  0.2+    K0333  568  0.2-  0.0
K0326  568  0.2+  0.2+    K0332  568  0.0   0.0
K0326  568  1.2-  0.8-    K0332  568  0.1+  0.1-

S/2003 J 6
Epoch 2003 June 10.0 TT = JDT 2452800.5                 MPC
M  67.46645              (2000.0)            P               Q
n   0.58225703     Peri.  285.53719     -0.91577825     +0.05775750
a   0.1398607      Node   100.93276     +0.24316404     +0.86739262
e   0.1572190      Incl.  156.11776     -0.31972090     +0.49426118
P   1.69           H   15.8           P/d   618.28
Residuals in seconds of arc
K0326  568  0.0   0.1-    K032N  568  0.0   0.2-    K0333  568  0.1-  0.1-
K0326  568  0.1+  0.0     K032N  568  0.2-  0.1+    K0334  568  0.1+  0.0
K0326  568  0.3-  0.3-    K032P  568  0.0   0.1-    K0334  568  0.2+  0.2+
K0329  568  0.5+  0.4+    K032P  568  0.0   0.1-
K0329  568  0.1-  0.1+    K0333  568  0.1-  0.0

Ephemerides:
    S/2003 J 1                                                   q = 0.1073
Date    TT    R. A. (2000) Decl.     Delta     r_J   dR.A. ("/m)  dDecl.m1"/')
2003 03 02    08 53.57   +18 48.0    4.557    0.131  3374+/3.96+   448+/  7.5+
2003 03 12    08 49.59   +19 05.7    4.663    0.135  2933+/3.45+   699+/ 11.6+
2003 03 22    08 46.71   +19 18.0    4.791    0.140  2454+/2.89+   923+/ 15.4+
2003 04 01    08 45.05   +19 24.9    4.934    0.145  1946+/2.29+  1122+/ 18.7+
2003 04 11    08 44.66   +19 26.3    5.090    0.150  1420+/1.67+  1301+/ 21.7+
2003 04 21    08 45.52   +19 22.6    5.252    0.154   885+/1.04+  1463+/ 24.4+
2003 05 01    08 47.57   +19 14.1    5.416    0.159   347+/0.41+  1614+/ 26.9+
2003 05 11    08 50.70   +19 01.0    5.579    0.164   187-/0.22-  1757+/ 29.3+
2003 05 21    08 54.79   +18 43.7    5.736    0.168   713-/0.84-  1897+/ 31.6+
2003 05 31    08 59.74   +18 22.4    5.883    0.173  1225-/1.43-  2035+/ 33.9+
2003 06 10    09 05.43   +17 57.5    6.019    0.177  1721-/2.01-  2173+/ 36.2+
2003 06 20    09 11.73   +17 29.3    6.141    0.181  2199-/2.56-  2311+/ 38.5+
2003 06 30    09 18.54   +16 58.0    6.247    0.185  2656-/3.09-  2451+/ 40.9+
2003 07 10    09 25.77   +16 23.9    6.334    0.188  3091-/3.58-  2592+/ 43.2+

    S/2003 J 6                                                   q = 0.1179
Date    TT    R. A. (2000) Decl.     Delta     r_J   dR.A. ("/m)  dDecl. ("/')
2003 03 02    08 51.87   +17 57.2    4.544    0.118  1937+/2.26+  2598-/ 43.3-
2003 03 12    08 47.81   +18 16.5    4.649    0.119  1429+/1.67+  2250-/ 37.5-
2003 03 22    08 44.87   +18 31.4    4.774    0.120   897+/1.05+  1876-/ 31.3-
2003 04 01    08 43.17   +18 41.5    4.915    0.121   353+/0.41+  1484-/ 24.7-
2003 04 11    08 42.76   +18 46.6    5.067    0.123   194-/0.23-  1084-/ 18.1-
2003 04 21    08 43.62   +18 46.9    5.225    0.124   731-/0.86-   682-/ 11.4-
2003 05 01    08 45.69   +18 42.4    5.385    0.126  1248-/1.46-   284-/  4.7-
2003 05 11    08 48.88   +18 33.5    5.541    0.128  1736-/2.03-   106+/  1.8+
2003 05 21    08 53.07   +18 20.1    5.692    0.130  2185-/2.56-   486+/  8.1+
2003 05 31    08 58.15   +18 02.7    5.832    0.132  2590-/3.03-   852+/ 14.2+
2003 06 10    09 04.00   +17 41.3    5.961    0.135  2943-/3.43-  1201+/ 20.0+
2003 06 20    09 10.52   +17 16.3    6.075    0.137  3242-/3.77-  1531+/ 25.5+
2003 06 30    09 17.58   +16 47.8    6.172    0.139  3482-/4.04-  1839+/ 30.7+
2003 07 10    09 25.11   +16 16.1    6.252    0.141  3663-/4.24-  2124+/ 35.4+

Brian G. Marsden             (C) Copyright 2003 MPC           M.P.E.C. 2003-E29

Read MPEC 2003-E28 Read MPEC 2003-E30


Our Web policy. Index to the CBAT/MPC/ICQ pages.

